[[{"header":{"parameterUnit":"m.s-1","parameterCategory":1,"la1":30.2992,"la2":30.254,"lo1":-89.0895,"lo2":-89.0443,"dy":0.0025,"dx":0.0025,"nx":19,"ny":19,"refTime":"2026-04-18T09:00:00:Z","depth":0,"parameterNumber":2,"parameterNumberName":"U-component_of_WINDS"},"data":[0,0,0,3.2471,3.2474,3.2591,3.2591,3.2763,3.2765,0,0,0,0,0,0,0,0,0,0,0,3.2452,3.2453,3.247,3.2474,3.2591,3.2591,3.2763,3.2765,0,0,0,0,0,0,0,0,0,0,0,3.2451,3.2453,3.2455,3.2474,3.2591,3.2591,3.2763,3.2666,0,0,0,0,0,0,0,0,0,0,3.2548,3.2546,3.2452,3.2455,3.2475,3.2591,3.2591,3.2661,3.2672,3.2721,0,3.277,0,3.277,3.2778,3.2779,0,0,0,3.2462,3.2537,3.2555,3.2455,3.2476,3.259,3.2535,3.2667,3.2679,3.2736,3.2772,3.2778,3.2773,3.278,3.2781,3.3103,3.3105,0,0,3.2455,3.2481,3.2546,3.2564,3.2549,3.2531,3.2538,3.2674,3.2715,3.2772,3.2781,3.2776,3.2781,3.2782,3.3101,3.3104,0,0,0,3.2445,3.2477,3.249,3.2557,3.2577,3.2535,3.2543,3.2709,3.2711,3.2783,3.2778,3.2782,3.2784,3.3099,3.3102,3.3228,0,0,0,3.244,3.2471,3.2488,3.2505,3.2575,3.2645,3.2575,3.2702,3.2716,3.2777,3.2782,3.2786,3.3096,3.31,3.322,3.3283,0,0,0,3.2439,3.247,3.2493,3.2506,3.2558,3.2642,3.2652,3.2704,3.2714,3.2779,3.2787,3.3095,3.31,3.3212,3.3271,3.3374,0,0,0,3.2444,3.2604,3.2495,3.2672,3.2557,3.272,3.265,3.277,3.2841,3.2783,3.3097,3.3102,3.321,3.3263,3.3366,3.3465,3.3509,0,0,3.266,3.2631,3.2733,3.2639,3.2827,3.27,3.2906,3.2947,3.293,3.3046,3.3053,3.3222,3.327,3.3372,3.3748,3.3783,0,0,0,3.281,3.2883,3.2928,3.2997,3.3032,3.3066,3.3073,3.3087,3.3184,3.2995,3.3287,3.3315,3.3374,3.342,3.345,3.3497,3.3124,3.3124,3.3123,3.3152,3.3121,3.3287,3.3269,3.3337,3.3341,3.3392,3.3412,3.3361,3.3431,3.3465,3.3696,3.3751,3.3773,3.3824,3.3515,3.3516,3.3516,3.3517,3.3465,3.3563,3.3491,3.3625,3.3591,3.3703,3.3712,3.3672,3.377,3.3669,3.3719,3.3611,3.3813,3.3855,3.3526,3.3524,3.3523,3.3522,3.3521,3.3685,3.3726,3.3741,3.3836,3.3912,3.3888,3.3985,3.395,3.3918,3.3968,3.3998,3.3996,3.3988,3.3985,3.3986,3.3987,3.3987,3.3988,3.3988,3.3906,3.3919,3.4006,3.4055,3.4093,3.4139,3.4143,3.4179,3.421,3.4177,3.4177,3.4118,3.3839,3.3769,3.4001,3.3998,3.3997,3.3996,3.3995,3.4233,3.4153,3.4287,3.4326,3.4379,3.4455,3.4409,3.4485,3.451,3.4558,3.4488,3.4288,3.4256,3.4232,3.4173,3.4496,3.4496,3.4496,3.4496,3.4417,3.4397,3.4525,3.4588,3.4646,3.4617,3.4767,3.4771,3.4762,3.4775,3.4723,3.4643,3.462,3.4601,3.4569,3.4513,3.4915,3.4916,3.4916,3.4615,3.4599,3.4734,3.4725,3.4764,3.4797,3.4936,3.5009,3.4983,3.4932,3.4783,3.4766,3.4635,3.4595,3.4542,3.4493,3.4391,0,0]},{"header":{"parameterUnit":"m.s-1","parameterCategory":1,"la1":30.2992,"la2":30.254,"lo1":-89.0895,"lo2":-89.0443,"dy":0.0025,"dx":0.0025,"nx":19,"ny":19,"refTime":"2026-04-18T09:00:00:Z","depth":0,"parameterNumber":3,"parameterNumberName":"V-component_of_WINDS"},"data":[0,0,0,4.8387,4.8389,4.8478,4.8478,4.8602,4.8603,0,0,0,0,0,0,0,0,0,0,0,4.837,4.8371,4.8387,4.8389,4.8478,4.8478,4.8602,4.8603,0,0,0,0,0,0,0,0,0,0,0,4.8369,4.8371,4.8372,4.839,4.8478,4.8478,4.8601,4.853,0,0,0,0,0,0,0,0,0,0,4.8442,4.8436,4.837,4.8372,4.839,4.8478,4.8478,4.8526,4.8534,4.8567,0,4.8601,0,4.8604,4.8612,4.8613,0,0,0,4.8381,4.8429,4.8445,4.8373,4.8391,4.8478,4.8436,4.8531,4.854,4.8578,4.8603,4.8607,4.8606,4.8613,4.8614,4.8833,4.8834,0,0,4.8377,4.839,4.8439,4.8452,4.8442,4.8433,4.8439,4.8536,4.8563,4.8603,4.861,4.8609,4.8614,4.8615,4.8832,4.8834,0,0,0,4.8368,4.8387,4.84,4.8447,4.8462,4.8436,4.8442,4.8559,4.8562,4.8611,4.861,4.8615,4.8617,4.883,4.8832,4.8914,0,0,0,4.8364,4.8382,4.8399,4.8408,4.8461,4.8512,4.8463,4.8555,4.8566,4.8609,4.8615,4.8618,4.8829,4.8831,4.8909,4.895,0,0,0,4.8361,4.8381,4.8398,4.8408,4.8447,4.851,4.8519,4.8557,4.8566,4.8613,4.8618,4.8828,4.8831,4.8904,4.8941,4.901,0,0,0,4.836,4.8469,4.8399,4.852,4.8447,4.8562,4.8518,4.8603,4.8653,4.8616,4.8829,4.8832,4.8902,4.8937,4.9005,4.9069,4.9098,0,0,4.8505,4.8487,4.8557,4.8497,4.8628,4.8547,4.8689,4.8721,4.8712,4.8792,4.8798,4.891,4.8941,4.9009,4.9257,4.928,0,0,0,4.8607,4.8657,4.8689,4.8739,4.8767,4.8794,4.8803,4.8815,4.8883,4.8757,4.8954,4.8972,4.9011,4.9041,4.9061,4.9092,4.8847,4.8847,4.8847,4.883,4.8814,4.8927,4.8922,4.897,4.8979,4.9015,4.9031,4.9,4.9047,4.907,4.9223,4.9259,4.9274,4.9307,4.9105,4.9105,4.9105,4.9105,4.9039,4.9106,4.9063,4.9157,4.9138,4.9216,4.9228,4.9203,4.927,4.9205,4.9238,4.9166,4.9299,4.9327,4.9111,4.911,4.911,4.9109,4.9109,4.9181,4.921,4.9224,4.9293,4.9348,4.9337,4.9405,4.9385,4.9367,4.94,4.9421,4.942,4.9414,4.9412,4.9413,4.9413,4.9414,4.9414,4.9414,4.9323,4.9336,4.9396,4.9435,4.9464,4.9498,4.9507,4.9534,4.9557,4.9537,4.9537,4.95,4.9317,4.927,4.9422,4.9421,4.942,4.9419,4.9419,4.9537,4.9485,4.9579,4.9608,4.965,4.9704,4.9679,4.9734,4.9753,4.9786,4.9742,4.9611,4.959,4.9574,4.9535,4.9747,4.9747,4.9747,4.9747,4.9655,4.9644,4.9734,4.9781,4.9824,4.981,4.9913,4.992,4.9919,4.9929,4.9896,4.9843,4.9828,4.9816,4.9795,4.9758,5.0022,5.0022,5.0023,4.9785,4.9776,4.9869,4.9869,4.9901,4.9928,5.0023,5.0076,5.0064,5.0033,4.9936,4.9924,4.9839,4.9812,4.9778,4.9746,4.9678,0,0]}]]